Wind_Speed
59 58 57 58 57 57 56 56 57 58 58 58 58 58 57 57 57 58 58 58 59 60 61 63 64 65 66 66 68 69 70 71 71 72 73 74 74 75
59 59 59 58 58 58 58 58 58 59 59 58 59 59 58 59 59 59 59 59 60 62 64 65 67 68 69 71 72 73 74 75 75 76 77 78 79 80
58 57 57 56 57 58 59 58 58 58 59 58 58 58 59 60 60 60 60 62 63 65 67 69 71 72 73 74 75 76 77 78 79 80 81 82 84 85
54 54 55 55 55 56 56 57 58 58 59 58 57 59 61 62 62 63 63 65 66 68 70 71 72 73 75 76 77 78 80 81 82 83 84 85 86 87
50 51 51 52 53 53 54 55 56 57 57 57 59 60 61 62 64 65 65 66 68 69 71 72 74 75 77 78 79 80 81 81 82 82 82 82 82 82
45 46 48 49 49 50 51 52 53 55 56 58 59 60 62 64 65 65 65 66 68 70 72 73 75 76 76 77 77 77 76 76 75 74 73 73 72 72
41 42 43 44 45 46 47 49 51 53 54 56 58 61 62 63 64 64 65 66 69 71 72 73 73 72 72 71 71 70 69 68 66 64 63 63 62 62
36 37 38 39 41 43 46 47 48 51 53 55 57 59 60 62 63 65 66 68 69 70 69 68 68 67 67 67 66 65 63 61 60 58 57 56 56 56
31 33 35 37 40 42 44 47 49 51 53 55 56 58 60 62 64 65 67 67 67 67 65 62 63 62 62 62 61 59 57 55 53 52 52 52 52 52
28 31 33 36 38 41 44 47 49 51 53 55 57 59 61 63 65 65 65 64 62 62 60 58 57 56 55 54 53 52 51 49 47 47 46 46 46 46
29 31 34 36 39 42 44 47 49 51 53 56 58 60 62 63 63 62 60 58 56 56 56 54 51 49 48 48 48 48 46 45 43 42 41 41 41 41
29 31 34 37 39 42 44 47 50 52 55 57 59 60 60 60 58 56 55 53 52 51 51 47 45 44 41 42 44 45 44 43 41 40 38 37 36 35
30 33 35 38 41 43 46 48 51 53 55 57 58 58 56 55 53 52 51 49 49 47 46 43 41 41 39 37 40 42 42 40 38 37 36 34 33 32
32 34 37 40 42 45 47 50 52 54 55 55 55 54 53 52 51 49 48 47 46 44 42 40 39 38 38 37 37 38 38 38 36 34 33 31 30 28
34 37 39 42 45 47 49 51 53 54 54 53 53 52 51 49 47 45 44 44 43 42 40 39 38 37 37 37 35 34 33 34 35 33 31 29 27 26
37 39 42 44 47 49 51 52 53 52 52 52 51 49 47 44 42 40 40 40 39 40 40 39 38 37 36 36 34 32 31 30 31 31 29 28 28 25
40 42 45 47 49 51 52 52 52 52 51 49 47 44 41 39 38 37 37 37 37 37 38 38 36 34 34 34 33 31 30 30 30 29 27 26 27 25
42 44 47 49 50 51 51 51 51 49 47 45 42 39 36 35 35 35 35 35 34 35 35 34 32 31 31 31 33 31 30 29 29 28 26 24 25 25
44 46 48 49 50 50 50 49 47 46 44 40 37 34 33 33 33 33 33 33 32 32 33 32 31 30 28 27 29 31 29 28 27 27 26 25 23 24
45 47 49 50 50 50 49 47 46 43 39 35 33 32 31 31 31 31 31 31 31 31 32 32 32 31 30 28 27 30 31 29 26 25 25 24 23 23
47 48 49 50 50 49 47 45 42 38 34 31 31 31 30 30 31 31 31 31 31 31 31 31 33 33 32 30 28 29 30 30 28 25 23 21 21 21
48 49 50 50 49 47 44 41 36 33 30 29 30 30 30 30 30 30 31 31 30 31 31 32 33 33 32 31 29 28 27 28 27 26 24 21 19 19
48 49 50 49 47 44 40 36 32 30 28 28 29 29 29 30 30 30 31 31 31 31 32 32 32 32 32 31 30 28 27 26 25 25 25 24 21 20
Wind_Direction
266 268 270 271 273 274 275 277 279 280 282 282 282 282 281 281 282 282 282 283 284 284 284 285 285 285 285 284 284 283 283 282 281 280 278 277 276 274
265 266 268 269 271 273 275 277 279 280 281 281 282 283 282 283 284 285 285 286 286 286 286 286 286 286 286 285 285 284 283 282 281 280 278 277 275 274
263 264 266 268 271 273 276 278 279 280 282 282 282 283 283 285 286 287 288 289 288 288 288 288 288 287 287 286 286 285 284 283 281 280 278 276 275 273
261 263 265 268 270 272 275 276 277 279 281 282 282 284 286 287 288 289 290 290 290 290 290 290 290 289 289 288 287 286 285 284 282 281 279 277 275 273
260 262 264 266 269 272 273 276 277 279 281 282 283 285 287 288 290 291 291 292 292 292 292 292 292 291 291 290 289 288 286 285 283 281 280 278 276 274
260 261 263 266 269 272 274 276 278 280 281 283 285 286 288 290 292 292 293 293 294 294 294 293 293 293 293 292 290 289 288 287 285 283 281 279 277 275
260 261 264 267 270 274 275 278 280 281 283 285 287 289 291 292 293 294 295 296 295 295 295 296 295 295 294 293 293 292 291 289 288 285 283 280 278 276
261 263 266 269 272 275 279 281 283 285 286 289 291 293 294 295 295 296 297 297 296 296 297 297 296 296 296 296 295 294 293 292 290 287 285 282 280 277
264 267 270 273 276 279 282 285 287 289 291 293 294 295 296 297 298 298 298 298 298 297 297 297 297 298 297 297 296 296 295 294 291 289 287 285 282 279
269 272 276 278 280 284 287 289 292 293 294 295 296 297 298 299 299 299 299 299 299 298 299 299 299 299 298 298 298 299 299 297 295 293 291 288 285 282
278 280 282 284 287 290 292 294 295 296 297 298 299 300 300 300 301 301 301 300 299 299 300 301 300 300 301 301 301 303 303 302 300 298 296 293 290 287
284 287 289 292 294 295 296 297 298 299 300 301 301 302 302 302 302 303 302 301 301 300 301 302 301 301 301 301 302 305 307 307 305 303 301 299 295 291
293 295 296 297 298 299 299 300 301 302 302 303 303 304 304 304 304 304 304 304 303 303 302 302 301 302 301 300 301 303 306 307 306 305 304 302 299 295
300 300 301 301 301 302 302 303 304 304 304 305 305 305 305 305 304 305 305 305 305 304 303 303 303 303 302 301 301 302 305 306 305 305 305 304 302 299
303 304 304 304 304 305 305 305 305 305 305 306 306 306 305 305 305 305 306 307 307 305 305 306 306 306 305 304 304 304 304 305 306 307 306 304 302 300
306 306 307 307 307 306 306 307 306 306 306 306 306 306 305 305 305 306 307 308 308 307 308 309 311 310 309 308 308 308 308 308 308 308 306 303 301 299
309 309 309 309 309 309 308 308 307 307 307 307 307 306 306 306 306 308 309 310 310 309 310 311 313 313 312 311 311 312 312 313 312 311 308 304 300 298
311 311 312 312 312 311 311 310 309 308 307 307 306 306 306 307 308 309 311 312 312 312 312 312 314 315 315 315 314 314 315 316 315 313 310 306 301 299
314 315 315 315 315 314 313 312 310 309 308 307 305 305 306 308 309 311 313 314 315 315 315 314 315 316 316 315 313 312 314 315 314 312 310 308 303 300
317 317 317 317 316 315 314 312 311 309 307 305 304 305 306 308 310 312 313 314 315 316 317 316 316 317 318 317 315 313 313 315 314 312 310 309 306 302
319 319 320 319 318 317 315 313 312 309 306 305 305 306 306 308 310 312 313 314 315 317 318 317 317 318 318 319 318 316 314 315 316 314 312 309 306 303
320 321 321 321 320 319 317 314 312 309 306 305 306 307 307 308 310 311 313 314 315 317 319 319 319 318 317 318 319 318 316 316 316 316 315 312 307 302
321 322 323 323 322 320 318 316 313 310 308 307 308 308 308 310 311 312 313 315 316 318 319 320 319 318 317 319 320 319 318 317 315 314 314 313 313 309
Height
5704 5704 5703 5703 5702 5701 5700 5698 5696 5693 5691 5688 5684 5681 5677 5675 5672 5670 5667 5664 5661 5657 5654 5651 5648 5644 5641 5638 5635 5632 5629 5626 5623 5620 5618 5616 5614 5613
5690 5691 5690 5690 5689 5688 5687 5685 5683 5680 5677 5674 5671 5668 5663 5660 5657 5654 5651 5648 5644 5639 5636 5632 5629 5625 5621 5618 5614 5610 5607 5603 5600 5596 5593 5590 5588 5586
5676 5677 5677 5677 5676 5675 5673 5671 5670 5667 5663 5660 5657 5653 5649 5645 5642 5638 5634 5630 5626 5621 5617 5613 5608 5604 5599 5595 5591 5586 5582 5578 5574 5570 5566 5563 5560 5558
5662 5664 5664 5664 5663 5662 5661 5658 5656 5653 5650 5646 5642 5638 5634 5630 5627 5622 5617 5612 5607 5602 5597 5592 5587 5581 5576 5571 5566 5561 5556 5551 5546 5541 5537 5533 5529 5526
5649 5651 5651 5651 5651 5649 5648 5645 5643 5640 5636 5633 5629 5624 5620 5615 5611 5606 5600 5594 5588 5582 5576 5570 5564 5558 5552 5546 5540 5534 5528 5522 5517 5511 5506 5502 5498 5494
5637 5638 5639 5639 5638 5637 5635 5633 5629 5626 5623 5619 5615 5610 5605 5599 5594 5589 5583 5576 5569 5562 5555 5549 5542 5534 5527 5520 5513 5507 5501 5495 5489 5484 5478 5474 5470 5467
5626 5627 5628 5628 5627 5625 5623 5620 5617 5613 5609 5605 5601 5595 5589 5583 5578 5571 5565 5558 5550 5542 5536 5527 5519 5511 5503 5495 5488 5482 5476 5470 5464 5459 5454 5450 5446 5443
5616 5617 5617 5617 5616 5614 5611 5608 5604 5600 5596 5591 5586 5580 5573 5567 5561 5554 5547 5540 5532 5523 5516 5507 5497 5490 5482 5474 5466 5459 5453 5448 5442 5437 5433 5429 5425 5422
5608 5608 5608 5607 5605 5603 5599 5596 5592 5587 5582 5577 5571 5565 5558 5552 5545 5537 5529 5521 5512 5503 5497 5490 5479 5472 5463 5454 5446 5440 5434 5428 5423 5418 5413 5409 5405 5402
5601 5600 5599 5597 5595 5592 5588 5583 5578 5573 5569 5563 5557 5550 5542 5535 5527 5519 5511 5503 5493 5484 5478 5473 5464 5455 5446 5437 5429 5423 5417 5412 5406 5401 5396 5392 5388 5384
5594 5592 5590 5588 5585 5581 5576 5571 5565 5560 5554 5547 5541 5533 5525 5517 5509 5501 5493 5486 5478 5468 5461 5456 5449 5442 5433 5423 5415 5408 5403 5397 5392 5386 5382 5377 5373 5369
5586 5584 5581 5577 5574 5569 5564 5558 5552 5546 5539 5532 5524 5517 5509 5500 5492 5485 5477 5470 5462 5455 5447 5442 5435 5428 5424 5414 5404 5397 5391 5385 5379 5374 5369 5364 5359 5355
5578 5575 5572 5567 5563 5558 5552 5546 5539 5532 5524 5516 5508 5500 5492 5484 5477 5469 5462 5455 5448 5441 5435 5430 5424 5416 5410 5406 5397 5388 5381 5375 5369 5364 5358 5353 5349 5345
5570 5566 5562 5557 5552 5546 5540 5533 5525 5518 5510 5501 5493 5485 5477 5470 5463 5455 5448 5441 5434 5428 5422 5417 5412 5406 5399 5394 5388 5380 5373 5366 5361 5356 5350 5345 5340 5336
5562 5557 5552 5546 5540 5534 5527 5519 5512 5503 5495 5487 5479 5471 5463 5456 5449 5443 5436 5429 5422 5416 5411 5405 5400 5394 5388 5382 5377 5371 5365 5359 5352 5347 5342 5337 5333 5329
5553 5547 5541 5535 5528 5521 5514 5506 5497 5489 5481 5473 5465 5457 5450 5444 5438 5432 5426 5419 5413 5406 5400 5394 5389 5383 5377 5371 5366 5361 5356 5351 5345 5339 5335 5330 5325 5322
5543 5537 5530 5523 5516 5508 5500 5491 5483 5475 5467 5459 5452 5445 5439 5433 5427 5422 5416 5410 5404 5397 5391 5385 5379 5374 5368 5362 5357 5352 5347 5342 5337 5332 5327 5323 5318 5315
5533 5526 5518 5510 5502 5494 5485 5477 5469 5461 5454 5446 5440 5434 5429 5423 5418 5413 5407 5401 5395 5389 5383 5377 5372 5367 5361 5355 5348 5344 5340 5335 5330 5325 5320 5316 5312 5308
5522 5514 5506 5498 5489 5480 5472 5464 5456 5449 5442 5435 5430 5425 5420 5415 5410 5405 5399 5394 5388 5382 5375 5369 5364 5360 5355 5350 5344 5336 5333 5329 5324 5319 5314 5310 5306 5302
5511 5503 5495 5486 5477 5468 5459 5451 5444 5437 5431 5425 5420 5416 5412 5407 5402 5397 5392 5386 5381 5375 5369 5362 5357 5352 5347 5343 5338 5331 5324 5320 5317 5312 5308 5303 5299 5296
5501 5492 5483 5474 5465 5456 5448 5440 5432 5426 5421 5416 5412 5408 5404 5399 5395 5389 5384 5379 5373 5368 5363 5357 5350 5344 5339 5334 5330 5325 5318 5312 5308 5304 5301 5297 5293 5289
5490 5482 5473 5463 5454 5445 5437 5429 5422 5417 5412 5408 5404 5400 5396 5391 5387 5382 5377 5372 5366 5361 5356 5350 5343 5337 5332 5327 5322 5317 5312 5306 5301 5296 5292 5289 5286 5283
5480 5471 5462 5453 5443 5434 5426 5419 5413 5409 5405 5401 5397 5392 5388 5383 5379 5374 5369 5364 5359 5354 5348 5343 5337 5330 5324 5319 5314 5309 5305 5300 5295 5291 5286 5282 5279 5276